Time,TemperatureF,DewpointF,PressureIn,WindDirection,WindDirectionDegrees,WindSpeedMPH,WindSpeedGustMPH,Humidity,HourlyPrecipIn,Conditions,Clouds,dailyrainin,SoftwareType,DateUTC
2013-02-23 00:07:00,29.1,26.0,30.30,SSE,164,0.0,-999.0,88,-99.99,,,0.00,weatherlink.com 1.10,2013-02-23 05:07:00,
2013-02-23 00:22:00,28.7,26.0,30.29,SSE,164,0.0,-999.0,89,-99.99,,,0.00,weatherlink.com 1.10,2013-02-23 05:22:00,
2013-02-23 00:37:00,28.0,25.0,30.29,SSE,164,0.0,-999.0,89,-99.99,,,0.00,weatherlink.com 1.10,2013-02-23 05:37:00,
2013-02-23 00:52:00,27.6,25.0,30.29,SSE,164,0.0,-999.0,88,-99.99,,,0.00,weatherlink.com 1.10,2013-02-23 05:52:00,
2013-02-23 01:07:00,26.7,24.0,30.28,SSE,164,0.0,-999.0,89,-99.99,,,0.00,weatherlink.com 1.10,2013-02-23 06:07:00,
2013-02-23 01:22:00,26.4,24.0,30.28,SSE,164,0.0,-999.0,90,-99.99,,,0.00,weatherlink.com 1.10,2013-02-23 06:22:00,
2013-02-23 01:37:00,26.4,24.0,30.27,SSE,164,0.0,-999.0,90,-99.99,,,0.00,weatherlink.com 1.10,2013-02-23 06:37:00,
2013-02-23 01:52:00,25.9,24.0,30.27,SSE,164,0.0,-999.0,91,-99.99,,,0.00,weatherlink.com 1.10,2013-02-23 06:52:00,
2013-02-23 02:07:00,26.5,24.0,30.27,SSE,164,0.0,-999.0,91,-99.99,,,0.00,weatherlink.com 1.10,2013-02-23 07:07:00,
2013-02-23 02:22:00,27.0,25.0,30.27,SSE,164,0.0,-999.0,90,-99.99,,,0.00,weatherlink.com 1.10,2013-02-23 07:22:00,
2013-02-23 02:37:00,27.3,25.0,30.26,SSE,164,0.0,-999.0,90,-99.99,,,0.00,weatherlink.com 1.10,2013-02-23 07:37:00,
2013-02-23 02:52:00,27.7,25.0,30.26,SSE,164,0.0,-999.0,89,-99.99,,,0.00,weatherlink.com 1.10,2013-02-23 07:52:00,
2013-02-23 03:07:00,27.9,25.0,30.25,SSE,164,0.0,-999.0,89,-99.99,,,0.00,weatherlink.com 1.10,2013-02-23 08:07:00,
2013-02-23 03:22:00,28.2,25.0,30.25,SSE,164,0.0,-999.0,89,-99.99,,,0.00,weatherlink.com 1.10,2013-02-23 08:22:00,
2013-02-23 03:37:00,28.2,25.0,30.25,SSE,164,0.0,-999.0,89,-99.99,,,0.00,weatherlink.com 1.10,2013-02-23 08:37:00,
2013-02-23 03:52:00,28.3,26.0,30.25,SSE,164,0.0,-999.0,89,-99.99,,,0.00,weatherlink.com 1.10,2013-02-23 08:52:00,
2013-02-23 04:07:00,28.5,26.0,30.24,SSE,164,0.0,-999.0,89,-99.99,,,0.00,weatherlink.com 1.10,2013-02-23 09:07:00,
2013-02-23 04:22:00,28.6,26.0,30.24,SSE,164,0.0,-999.0,89,-99.99,,,0.00,weatherlink.com 1.10,2013-02-23 09:22:00,
2013-02-23 04:37:00,28.6,26.0,30.23,SSE,164,0.0,-999.0,89,-99.99,,,0.00,weatherlink.com 1.10,2013-02-23 09:37:00,
2013-02-23 04:52:00,28.8,26.0,30.23,SSE,164,0.0,-999.0,89,-99.99,,,0.00,weatherlink.com 1.10,2013-02-23 09:52:00,
2013-02-23 05:07:00,28.9,26.0,30.23,SSE,163,0.0,-999.0,89,-99.99,,,0.00,weatherlink.com 1.10,2013-02-23 10:07:00,
2013-02-23 05:22:00,29.0,26.0,30.23,SSE,164,0.0,-999.0,88,-99.99,,,0.00,weatherlink.com 1.10,2013-02-23 10:22:00,
2013-02-23 05:37:00,29.1,27.0,30.23,SSE,164,0.0,-999.0,90,-99.99,,,0.00,weatherlink.com 1.10,2013-02-23 10:37:00,
2013-02-23 05:52:00,29.2,26.0,30.23,SSE,164,0.0,-999.0,89,-99.99,,,0.00,weatherlink.com 1.10,2013-02-23 10:52:00,
2013-02-23 06:07:00,29.3,26.0,30.23,SSE,164,0.0,-999.0,88,-99.99,,,0.00,weatherlink.com 1.10,2013-02-23 11:07:00,
2013-02-23 06:22:00,29.3,27.0,30.22,SSE,164,0.0,-999.0,89,-99.99,,,0.00,weatherlink.com 1.10,2013-02-23 11:22:00,
2013-02-23 06:37:00,29.4,27.0,30.21,SSE,164,0.0,-999.0,89,-99.99,,,0.00,weatherlink.com 1.10,2013-02-23 11:37:00,
2013-02-23 06:52:00,29.6,27.0,30.21,SSE,164,0.0,-999.0,88,-99.99,,,0.00,weatherlink.com 1.10,2013-02-23 11:52:00,
2013-02-23 07:07:00,29.8,26.0,30.22,SSE,164,0.0,-999.0,87,-99.99,,,0.00,weatherlink.com 1.10,2013-02-23 12:07:00,
2013-02-23 07:22:00,30.0,27.0,30.21,SSE,164,0.0,-999.0,88,-99.99,,,0.00,weatherlink.com 1.10,2013-02-23 12:22:00,
2013-02-23 07:37:00,30.2,27.0,30.21,SSE,163,0.0,-999.0,88,-99.99,,,0.00,weatherlink.com 1.10,2013-02-23 12:37:00,
2013-02-23 07:52:00,30.8,27.0,30.21,SSE,163,0.0,-999.0,86,-99.99,,,0.00,weatherlink.com 1.10,2013-02-23 12:52:00,
2013-02-23 08:07:00,31.3,27.0,30.21,SSE,163,0.0,-999.0,85,-99.99,,,0.00,weatherlink.com 1.10,2013-02-23 13:07:00,
2013-02-23 08:22:00,31.7,28.0,30.21,SSE,163,0.0,-999.0,85,-99.99,,,0.00,weatherlink.com 1.10,2013-02-23 13:22:00,
2013-02-23 08:37:00,32.3,28.0,30.20,SSE,163,0.0,-999.0,84,-99.99,,,0.00,weatherlink.com 1.10,2013-02-23 13:37:00,
2013-02-23 08:52:00,32.7,28.0,30.20,SSE,163,0.0,-999.0,84,-99.99,,,0.00,weatherlink.com 1.10,2013-02-23 13:52:00,
2013-02-23 09:07:00,33.5,29.0,30.19,SSE,163,0.0,-999.0,82,-99.99,,,0.00,weatherlink.com 1.10,2013-02-23 14:07:00,
2013-02-23 09:22:00,34.4,29.0,30.19,SSE,158,0.0,-999.0,80,-99.99,,,0.00,weatherlink.com 1.10,2013-02-23 14:22:00,
2013-02-23 09:37:00,34.9,30.0,30.18,ESE,120,0.0,-999.0,81,-99.99,,,0.00,weatherlink.com 1.10,2013-02-23 14:37:00,
2013-02-23 09:52:00,35.3,29.0,30.18,South,187,0.0,-999.0,79,-99.99,,,0.00,weatherlink.com 1.10,2013-02-23 14:52:00,
2013-02-23 10:07:00,35.8,30.0,30.18,South,187,0.0,-999.0,79,-99.99,,,0.00,weatherlink.com 1.10,2013-02-23 15:07:00,
2013-02-23 10:22:00,36.0,30.0,30.17,SE,134,0.0,-999.0,78,-99.99,,,0.00,weatherlink.com 1.10,2013-02-23 15:22:00,
2013-02-23 10:37:00,36.3,29.0,30.17,South,182,0.0,-999.0,76,-99.99,,,0.00,weatherlink.com 1.10,2013-02-23 15:37:00,
2013-02-23 11:07:00,36.6,29.0,30.16,SE,142,0.0,-999.0,75,-99.99,,,0.00,weatherlink.com 1.10,2013-02-23 16:07:00,
2013-02-23 11:22:00,36.9,30.0,30.14,ESE,106,0.0,-999.0,75,-99.99,,,0.00,weatherlink.com 1.10,2013-02-23 16:22:00,
2013-02-23 11:37:00,36.9,29.0,30.14,SE,146,0.0,-999.0,74,-99.99,,,0.00,weatherlink.com 1.10,2013-02-23 16:37:00,
2013-02-23 11:52:00,37.2,30.0,30.13,SE,144,0.0,-999.0,74,-99.99,,,0.00,weatherlink.com 1.10,2013-02-23 16:52:00,
2013-02-23 12:07:00,37.5,30.0,30.12,ENE,76,0.0,-999.0,74,-99.99,,,0.00,weatherlink.com 1.10,2013-02-23 17:07:00,
2013-02-23 12:22:00,37.6,30.0,30.11,SE,128,0.0,-999.0,73,-99.99,,,0.00,weatherlink.com 1.10,2013-02-23 17:22:00,
2013-02-23 12:37:00,37.7,30.0,30.11,SSE,155,0.0,-999.0,73,-99.99,,,0.00,weatherlink.com 1.10,2013-02-23 17:37:00,
2013-02-23 12:52:00,37.8,30.0,30.09,SSE,154,0.0,-999.0,73,-99.99,,,0.00,weatherlink.com 1.10,2013-02-23 17:52:00,
2013-02-23 13:07:00,37.9,30.0,30.09,ESE,105,0.0,-999.0,73,-99.99,,,0.00,weatherlink.com 1.10,2013-02-23 18:07:00,
2013-02-23 13:22:00,38.0,30.0,30.10,SSE,155,0.0,-999.0,73,-99.99,,,0.00,weatherlink.com 1.10,2013-02-23 18:22:00,
2013-02-23 13:37:00,38.1,30.0,30.10,SE,136,0.0,-999.0,73,-99.99,,,0.00,weatherlink.com 1.10,2013-02-23 18:37:00,
2013-02-23 13:52:00,38.1,31.0,30.09,SE,132,0.0,-999.0,74,-99.99,,,0.00,weatherlink.com 1.10,2013-02-23 18:52:00,
2013-02-23 14:07:00,37.8,30.0,30.09,SE,134,0.0,-999.0,74,-99.99,,,0.00,weatherlink.com 1.10,2013-02-23 19:07:00,
2013-02-23 14:22:00,37.9,30.0,30.09,SSW,208,0.0,-999.0,74,-99.99,,,0.00,weatherlink.com 1.10,2013-02-23 19:22:00,
2013-02-23 14:37:00,37.8,31.0,30.07,SSE,163,0.0,-999.0,75,-99.99,,,0.00,weatherlink.com 1.10,2013-02-23 19:37:00,
2013-02-23 14:52:00,37.6,31.0,30.08,SSE,165,0.0,-999.0,76,-99.99,,,0.00,weatherlink.com 1.10,2013-02-23 19:52:00,
2013-02-23 15:07:00,37.7,31.0,30.07,SE,136,0.0,-999.0,77,-99.99,,,0.00,weatherlink.com 1.10,2013-02-23 20:07:00,
2013-02-23 15:22:00,37.5,31.0,30.07,ESE,117,0.0,-999.0,78,-99.99,,,0.00,weatherlink.com 1.10,2013-02-23 20:22:00,
2013-02-23 15:37:00,37.2,32.0,30.07,SE,132,0.0,-999.0,80,-99.99,,,0.00,weatherlink.com 1.10,2013-02-23 20:37:00,
2013-02-23 15:52:00,36.8,32.0,30.05,SE,135,0.0,-999.0,81,-99.99,,,0.00,weatherlink.com 1.10,2013-02-23 20:52:00,
2013-02-23 16:07:00,37.0,32.0,30.04,SE,128,0.0,-999.0,81,-99.99,,,0.00,weatherlink.com 1.10,2013-02-23 21:07:00,
2013-02-23 16:22:00,37.2,31.0,30.05,ESE,119,0.0,-999.0,79,-99.99,,,0.00,weatherlink.com 1.10,2013-02-23 21:22:00,
2013-02-23 16:37:00,37.1,31.0,30.05,SE,139,0.0,-999.0,79,-99.99,,,0.00,weatherlink.com 1.10,2013-02-23 21:37:00,
2013-02-23 16:52:00,36.7,31.0,30.04,ESE,104,0.0,-999.0,81,-99.99,,,0.00,weatherlink.com 1.10,2013-02-23 21:52:00,
2013-02-23 17:07:00,36.6,32.0,30.04,SSE,159,0.0,-999.0,82,-99.99,,,0.00,weatherlink.com 1.10,2013-02-23 22:07:00,
2013-02-23 17:22:00,36.4,31.0,30.03,ESE,105,0.0,-999.0,82,-99.99,,,0.00,weatherlink.com 1.10,2013-02-23 22:22:00,
2013-02-23 17:37:00,36.2,32.0,30.03,SSE,157,0.0,-999.0,83,-99.99,,,0.00,weatherlink.com 1.10,2013-02-23 22:37:00,
2013-02-23 17:52:00,35.7,32.0,30.03,ESE,106,0.0,-999.0,85,-99.99,,,0.00,weatherlink.com 1.10,2013-02-23 22:52:00,
2013-02-23 18:07:00,34.8,32.0,30.03,ESE,107,0.0,-999.0,89,-99.99,,,0.00,weatherlink.com 1.10,2013-02-23 23:07:00,
2013-02-23 18:22:00,34.1,32.0,30.02,ESE,122,0.0,-999.0,91,-99.99,,,0.00,weatherlink.com 1.10,2013-02-23 23:22:00,
2013-02-23 18:37:00,33.5,32.0,30.02,ESE,121,0.0,-999.0,93,-99.99,,,0.00,weatherlink.com 1.10,2013-02-23 23:37:00,
2013-02-23 18:52:00,33.3,32.0,30.02,SE,141,0.0,-999.0,94,-99.99,,,0.00,weatherlink.com 1.10,2013-02-23 23:52:00,
2013-02-23 19:07:00,33.1,32.0,30.00,SE,141,0.0,-999.0,95,-99.99,,,0.00,weatherlink.com 1.10,2013-02-24 00:07:00,
2013-02-23 19:22:00,33.1,32.0,30.01,SE,127,0.0,-999.0,95,-99.99,,,0.00,weatherlink.com 1.10,2013-02-24 00:22:00,
2013-02-23 19:37:00,32.9,32.0,30.01,SE,127,0.0,-999.0,95,-99.99,,,0.00,weatherlink.com 1.10,2013-02-24 00:37:00,
2013-02-23 19:52:00,32.9,32.0,30.01,SE,127,0.0,-999.0,95,-99.99,,,0.00,weatherlink.com 1.10,2013-02-24 00:52:00,
2013-02-23 20:07:00,32.7,32.0,30.00,SE,127,0.0,-999.0,96,-99.99,,,0.00,weatherlink.com 1.10,2013-02-24 01:07:00,
2013-02-23 20:22:00,32.5,32.0,29.98,SE,125,0.0,-999.0,96,-99.99,,,0.00,weatherlink.com 1.10,2013-02-24 01:22:00,
2013-02-23 20:37:00,32.8,32.0,29.99,SE,125,0.0,-999.0,96,-99.99,,,0.00,weatherlink.com 1.10,2013-02-24 01:37:00,
2013-02-23 20:52:00,32.8,32.0,29.98,ESE,123,0.0,-999.0,96,-99.99,,,0.00,weatherlink.com 1.10,2013-02-24 01:52:00,
2013-02-23 21:07:00,32.6,32.0,29.98,ESE,123,0.0,-999.0,96,-99.99,,,0.00,weatherlink.com 1.10,2013-02-24 02:07:00,
2013-02-23 21:22:00,32.8,32.0,29.95,ESE,119,0.0,-999.0,96,-99.99,,,0.00,weatherlink.com 1.10,2013-02-24 02:22:00,
2013-02-23 21:37:00,32.9,32.0,29.96,ESE,110,0.0,-999.0,97,-99.99,,,0.00,weatherlink.com 1.10,2013-02-24 02:37:00,
2013-02-23 21:52:00,32.9,32.0,29.95,ESE,109,0.0,-999.0,97,-99.99,,,0.00,weatherlink.com 1.10,2013-02-24 02:52:00,
2013-02-23 22:07:00,32.9,32.0,29.94,NNE,31,0.0,-999.0,97,-99.99,,,0.00,weatherlink.com 1.10,2013-02-24 03:07:00,
2013-02-23 22:22:00,32.8,32.0,29.94,NNE,14,0.0,-999.0,97,-99.99,,,0.00,weatherlink.com 1.10,2013-02-24 03:22:00,
2013-02-23 22:37:00,32.8,32.0,29.93,NNW,348,0.0,-999.0,97,-99.99,,,0.00,weatherlink.com 1.10,2013-02-24 03:37:00,
2013-02-23 22:52:00,32.8,32.0,29.92,NNW,336,0.0,-999.0,97,-99.99,,,0.00,weatherlink.com 1.10,2013-02-24 03:52:00,
2013-02-23 23:07:00,32.8,32.0,29.92,NNE,17,0.0,-999.0,97,-99.99,,,0.00,weatherlink.com 1.10,2013-02-24 04:07:00,
2013-02-23 23:22:00,32.8,32.0,29.91,NNE,16,0.0,-999.0,97,-99.99,,,0.00,weatherlink.com 1.10,2013-02-24 04:22:00,
2013-02-23 23:37:00,32.9,32.0,29.89,NE,39,0.0,-999.0,97,-99.99,,,0.00,weatherlink.com 1.10,2013-02-24 04:37:00,
2013-02-23 23:52:00,32.9,32.0,29.89,NNE,22,0.0,-999.0,97,-99.99,,,0.00,weatherlink.com 1.10,2013-02-24 04:52:00,